Temp
-5 -5 -5 -5 -5 -5 -5 -4 -4 -4 -5 -5 -5 -4 -4 -4 -4 -4 -4 -4 -4 -4 -4 -5 -5 -6 -6 -6 -6 -6 -7 -7 -7 -7 -6 -6 -6 -7 -7 -6 -6 -6 -6 -5 -5 -5 -5 -5 -5 -5 -5 -5 -5 -5 -5 -4 -4 -4 -4 -4 -4 -4 -4
-5 -5 -6 -5 -5 -5 -5 -4 -4 -5 -5 -5 -4 -4 -4 -4 -4 -4 -4 -3 -4 -4 -4 -5 -5 -6 -6 -6 -6 -6 -7 -7 -7 -6 -6 -6 -6 -7 -7 -7 -6 -6 -6 -5 -5 -5 -5 -5 -5 -5 -5 -5 -5 -5 -5 -5 -4 -4 -4 -4 -4 -4 -4
-5 -5 -6 -5 -5 -5 -5 -4 -5 -5 -5 -4 -4 -4 -3 -3 -3 -3 -4 -3 -4 -4 -4 -5 -5 -5 -6 -6 -6 -6 -6 -7 -6 -6 -6 -6 -7 -7 -7 -7 -6 -6 -6 -5 -5 -5 -5 -5 -5 -5 -5 -5 -5 -5 -5 -5 -5 -5 -5 -4 -4 -4 -4
-6 -5 -5 -4 -4 -4 -4 -4 -5 -4 -4 -4 -4 -3 -3 -3 -3 -3 -4 -4 -4 -4 -4 -5 -5 -5 -6 -6 -6 -6 -7 -7 -6 -6 -7 -6 -7 -6 -6 -7 -6 -6 -6 -6 -6 -6 -6 -6 -6 -6 -5 -5 -5 -5 -5 -5 -5 -5 -5 -4 -5 -5 -5
-6 -5 -5 -4 -4 -4 -4 -4 -4 -3 -4 -4 -3 -3 -3 -3 -3 -3 -3 -3 -4 -4 -4 -5 -5 -5 -5 -6 -6 -6 -6 -6 -6 -7 -7 -7 -7 -6 -7 -7 -6 -6 -6 -6 -7 -6 -6 -6 -6 -6 -5 -5 -5 -5 -5 -5 -5 -5 -5 -5 -5 -5 -5
-5 -5 -5 -5 -5 -4 -4 -4 -4 -4 -4 -4 -3 -3 -3 -2 -2 -2 -3 -3 -4 -4 -4 -5 -5 -5 -5 -5 -6 -6 -6 -6 -6 -7 -7 -7 -7 -7 -7 -7 -7 -7 -7 -7 -7 -7 -6 -6 -6 -6 -5 -5 -5 -5 -5 -5 -4 -5 -5 -5 -5 -5 -5
-6 -6 -5 -5 -5 -5 -5 -5 -5 -5 -5 -4 -4 -3 -3 -3 -2 -2 -3 -3 -4 -4 -4 -5 -5 -5 -5 -5 -6 -6 -6 -6 -6 -6 -6 -6 -6 -7 -7 -7 -7 -7 -7 -7 -7 -7 -6 -6 -6 -5 -5 -5 -5 -5 -5 -5 -5 -5 -5 -5 -5 -5 -5
-6 -6 -6 -5 -6 -6 -5 -5 -5 -5 -5 -5 -5 -4 -4 -3 -3 -3 -3 -3 -4 -4 -4 -5 -5 -5 -5 -5 -5 -6 -6 -6 -6 -6 -6 -6 -6 -6 -6 -7 -7 -7 -7 -7 -7 -7 -7 -6 -6 -6 -5 -5 -5 -5 -5 -5 -5 -5 -5 -5 -5 -5 -5
-6 -6 -6 -6 -6 -5 -5 -5 -5 -4 -4 -4 -4 -4 -4 -3 -3 -3 -2 -3 -4 -4 -4 -5 -5 -5 -5 -5 -5 -6 -6 -6 -6 -6 -6 -6 -6 -6 -6 -6 -7 -7 -7 -7 -7 -7 -7 -7 -6 -6 -5 -5 -5 -5 -5 -5 -5 -5 -5 -5 -5 -5 -5
-6 -6 -6 -5 -5 -5 -5 -5 -5 -5 -5 -4 -4 -4 -4 -3 -3 -3 -2 -3 -4 -4 -4 -5 -5 -5 -5 -5 -5 -5 -6 -6 -6 -6 -6 -6 -6 -6 -6 -6 -6 -7 -7 -6 -7 -7 -7 -7 -6 -6 -6 -5 -5 -5 -5 -5 -5 -5 -5 -5 -5 -5 -5
-6 -6 -6 -5 -5 -5 -5 -5 -5 -5 -4 -4 -4 -4 -4 -3 -3 -3 -2 -3 -4 -4 -4 -4 -4 -4 -5 -5 -5 -5 -5 -5 -5 -5 -5 -6 -6 -6 -6 -6 -6 -6 -6 -6 -6 -6 -6 -6 -7 -6 -6 -6 -5 -5 -5 -5 -5 -5 -5 -5 -5 -5 -5
-6 -6 -6 -5 -6 -6 -5 -5 -5 -5 -5 -4 -4 -4 -4 -4 -3 -3 -3 -3 -3 -4 -4 -4 -4 -4 -4 -4 -4 -5 -5 -5 -5 -5 -5 -5 -5 -6 -6 -6 -6 -6 -6 -6 -6 -6 -6 -6 -7 -7 -6 -6 -6 -5 -5 -5 -4 -5 -5 -5 -5 -5 -5
-7 -6 -6 -6 -6 -6 -6 -5 -5 -5 -5 -5 -4 -4 -4 -4 -3 -3 -3 -3 -3 -3 -4 -4 -4 -4 -4 -4 -4 -4 -4 -4 -4 -5 -5 -5 -5 -5 -6 -6 -6 -6 -6 -6 -6 -6 -6 -6 -7 -7 -7 -6 -6 -6 -5 -5 -5 -5 -5 -5 -5 -5 -5
-7 -7 -6 -6 -6 -6 -6 -6 -6 -5 -5 -5 -5 -5 -4 -4 -4 -4 -3 -3 -3 -3 -3 -4 -4 -4 -4 -4 -4 -4 -4 -4 -4 -4 -4 -5 -5 -5 -5 -5 -6 -6 -6 -6 -6 -6 -6 -6 -7 -7 -7 -7 -6 -6 -6 -6 -5 -5 -5 -5 -5 -5 -5
-7 -7 -7 -6 -6 -6 -6 -6 -6 -6 -6 -6 -5 -5 -5 -4 -4 -4 -4 -3 -3 -3 -3 -4 -4 -4 -4 -4 -4 -4 -4 -4 -4 -4 -4 -4 -5 -5 -5 -5 -5 -5 -5 -5 -6 -6 -6 -6 -6 -7 -7 -7 -7 -6 -6 -6 -6 -6 -5 -5 -5 -5 -6
-7 -7 -7 -7 -6 -6 -6 -6 -6 -6 -6 -6 -6 -5 -5 -5 -5 -4 -4 -4 -4 -4 -4 -4 -4 -4 -5 -5 -4 -4 -4 -4 -4 -4 -4 -4 -4 -4 -4 -4 -4 -4 -5 -5 -5 -5 -6 -6 -6 -6 -7 -7 -7 -6 -6 -6 -6 -6 -6 -6 -6 -6 -6
-8 -8 -7 -7 -6 -6 -6 -6 -6 -6 -6 -6 -6 -6 -5 -5 -5 -5 -4 -4 -4 -4 -4 -4 -4 -4 -5 -5 -5 -5 -4 -4 -4 -4 -4 -4 -4 -4 -4 -4 -4 -4 -4 -4 -5 -5 -5 -5 -5 -6 -6 -7 -7 -7 -7 -6 -6 -6 -6 -6 -6 -6 -6
-8 -8 -7 -7 -7 -6 -6 -6 -6 -7 -6 -6 -6 -6 -6 -6 -5 -5 -5 -5 -4 -4 -4 -4 -4 -4 -4 -5 -5 -5 -5 -4 -4 -4 -4 -4 -4 -4 -4 -4 -3 -3 -3 -4 -4 -5 -5 -5 -5 -5 -6 -6 -7 -7 -7 -7 -7 -7 -7 -7 -7 -6 -6
-9 -8 -8 -8 -7 -7 -6 -6 -6 -6 -7 -7 -7 -6 -6 -6 -6 -5 -5 -5 -5 -4 -4 -4 -4 -4 -4 -5 -5 -5 -5 -4 -4 -4 -4 -4 -4 -4 -4 -4 -3 -3 -3 -3 -4 -4 -4 -5 -5 -5 -6 -6 -6 -7 -7 -7 -7 -7 -7 -7 -7 -7 -7
-9 -8 -8 -8 -8 -7 -7 -6 -6 -6 -7 -7 -7 -7 -6 -6 -6 -6 -5 -5 -5 -5 -5 -4 -4 -4 -4 -5 -5 -5 -5 -5 -5 -4 -4 -4 -4 -4 -4 -4 -4 -4 -4 -3 -3 -3 -4 -4 -4 -5 -5 -6 -6 -6 -7 -7 -7 -7 -7 -7 -7 -7 -6
-9 -9 -9 -8 -8 -7 -7 -7 -6 -6 -6 -7 -7 -7 -7 -6 -6 -6 -6 -6 -5 -5 -5 -5 -5 -5 -5 -5 -5 -5 -5 -5 -5 -5 -4 -4 -4 -4 -4 -4 -4 -4 -4 -4 -4 -4 -4 -4 -4 -5 -5 -6 -6 -6 -7 -7 -7 -7 -7 -7 -7 -7 -7
-10 -9 -9 -9 -8 -8 -8 -7 -7 -6 -6 -6 -7 -7 -7 -6 -6 -6 -6 -6 -6 -5 -5 -5 -5 -5 -5 -5 -5 -5 -5 -5 -5 -5 -5 -5 -4 -4 -4 -4 -4 -4 -4 -4 -4 -4 -4 -4 -4 -4 -5 -5 -6 -6 -6 -7 -7 -7 -7 -7 -7 -7 -7
-10 -10 -9 -9 -9 -9 -8 -8 -7 -7 -7 -7 -7 -7 -7 -7 -6 -7 -7 -6 -6 -6 -5 -5 -5 -5 -5 -5 -5 -5 -5 -5 -5 -5 -5 -5 -5 -4 -4 -4 -4 -4 -4 -4 -4 -4 -4 -4 -4 -4 -5 -5 -5 -6 -6 -6 -7 -7 -7 -7 -7 -7 -7
-11 -10 -10 -9 -9 -9 -8 -8 -7 -7 -7 -7 -7 -7 -7 -7 -7 -7 -7 -7 -7 -6 -6 -5 -5 -5 -5 -5 -5 -5 -5 -6 -6 -6 -5 -5 -5 -5 -5 -4 -4 -4 -4 -4 -4 -4 -4 -4 -4 -5 -5 -5 -5 -5 -6 -6 -6 -7 -7 -7 -7 -7 -7
-12 -11 -10 -10 -10 -10 -9 -8 -8 -7 -7 -7 -7 -7 -8 -7 -7 -7 -7 -7 -7 -6 -6 -6 -5 -5 -5 -5 -5 -5 -5 -6 -6 -6 -6 -6 -5 -5 -5 -5 -5 -4 -4 -4 -4 -4 -4 -4 -4 -5 -5 -4 -5 -5 -6 -6 -7 -7 -7 -7 -7 -7 -7
-12 -11 -11 -11 -11 -10 -9 -8 -8 -7 -7 -8 -8 -8 -8 -7 -7 -7 -7 -7 -7 -7 -6 -6 -6 -6 -5 -5 -5 -5 -5 -5 -5 -6 -6 -6 -6 -6 -5 -5 -5 -5 -5 -4 -4 -4 -4 -4 -4 -5 -5 -4 -5 -5 -5 -6 -7 -7 -7 -7 -7 -7 -7
-13 -12 -12 -12 -11 -10 -9 -9 -9 -8 -8 -8 -8 -8 -7 -7 -7 -7 -7 -7 -7 -7 -7 -6 -6 -6 -6 -6 -6 -6 -5 -5 -5 -5 -6 -6 -6 -6 -6 -6 -6 -5 -5 -5 -5 -5 -5 -4 -4 -5 -5 -4 -4 -5 -5 -6 -6 -7 -7 -7 -7 -7 -7
-14 -13 -13 -12 -11 -10 -9 -9 -9 -8 -8 -8 -8 -8 -8 -7 -7 -7 -7 -7 -6 -6 -7 -7 -7 -6 -6 -6 -6 -6 -6 -5 -5 -5 -5 -6 -6 -6 -6 -6 -6 -6 -6 -6 -5 -5 -5 -5 -5 -5 -5 -5 -5 -5 -5 -6 -6 -6 -7 -7 -7 -7 -7
-14 -13 -12 -11 -10 -10 -9 -9 -9 -9 -8 -8 -9 -8 -8 -8 -7 -7 -7 -7 -6 -6 -6 -7 -7 -7 -7 -7 -6 -6 -6 -6 -5 -5 -5 -5 -6 -6 -6 -6 -6 -6 -6 -6 -6 -6 -5 -5 -5 -5 -5 -5 -5 -5 -5 -5 -5 -6 -6 -6 -7 -7 -7
-13 -12 -12 -11 -11 -10 -10 -10 -9 -9 -9 -9 -9 -8 -8 -8 -8 -7 -7 -7 -7 -7 -7 -7 -7 -7 -7 -7 -7 -6 -6 -6 -6 -5 -5 -5 -6 -6 -6 -6 -6 -6 -6 -6 -6 -6 -6 -6 -5 -5 -5 -5 -5 -5 -5 -5 -5 -5 -6 -6 -6 -6 -7
-14 -13 -12 -12 -11 -11 -11 -10 -10 -10 -10 -9 -9 -9 -9 -9 -8 -8 -8 -7 -7 -7 -7 -7 -7 -7 -7 -7 -7 -7 -7 -6 -6 -6 -6 -6 -6 -6 -6 -6 -6 -6 -6 -6 -6 -6 -6 -6 -6 -5 -5 -5 -5 -5 -5 -5 -5 -5 -6 -6 -6 -6 -6
-15 -13 -12 -11 -11 -11 -11 -11 -11 -11 -10 -10 -9 -9 -9 -9 -9 -8 -8 -8 -7 -7 -7 -7 -7 -7 -7 -7 -7 -7 -7 -7 -7 -6 -6 -6 -6 -6 -6 -6 -6 -6 -6 -6 -6 -6 -6 -6 -6 -6 -6 -6 -6 -6 -6 -6 -6 -6 -6 -6 -6 -6 -6
-15 -14 -13 -12 -12 -12 -12 -12 -12 -11 -11 -10 -9 -9 -9 -9 -9 -9 -8 -8 -8 -7 -7 -7 -7 -7 -7 -7 -7 -7 -7 -7 -7 -7 -7 -6 -6 -6 -6 -6 -6 -6 -6 -6 -6 -6 -6 -6 -6 -6 -6 -6 -6 -6 -6 -6 -6 -6 -6 -6 -6 -6 -6
-15 -14 -14 -13 -12 -12 -12 -12 -12 -11 -11 -10 -9 -9 -9 -9 -9 -9 -9 -8 -8 -8 -8 -8 -7 -7 -7 -7 -7 -7 -7 -7 -8 -8 -7 -7 -7 -6 -6 -6 -6 -6 -6 -6 -6 -6 -6 -6 -6 -6 -6 -6 -6 -6 -6 -6 -6 -6 -6 -6 -6 -6 -6
-15 -14 -14 -13 -12 -12 -13 -12 -12 -11 -11 -11 -10 -10 -9 -9 -9 -9 -9 -9 -9 -9 -9 -8 -8 -8 -7 -7 -7 -7 -7 -8 -8 -8 -8 -7 -7 -7 -7 -7 -7 -7 -7 -7 -7 -7 -6 -6 -6 -6 -6 -7 -6 -6 -6 -6 -6 -6 -6 -6 -6 -6 -7
-15 -15 -14 -14 -13 -13 -13 -13 -12 -12 -11 -11 -11 -10 -10 -9 -9 -9 -9 -9 -10 -10 -9 -9 -8 -8 -8 -8 -7 -7 -7 -7 -8 -8 -8 -8 -7 -7 -7 -7 -7 -7 -7 -7 -7 -7 -7 -7 -7 -7 -7 -7 -7 -7 -7 -6 -6 -6 -6 -6 -6 -7 -7
-15 -15 -14 -14 -13 -13 -13 -13 -12 -12 -11 -11 -11 -11 -10 -10 -9 -9 -9 -10 -10 -10 -10 -10 -9 -9 -8 -8 -8 -7 -7 -7 -8 -8 -8 -8 -8 -8 -8 -8 -8 -8 -8 -8 -8 -8 -7 -7 -7 -7 -7 -7 -7 -7 -7 -7 -7 -7 -7 -7 -7 -7 -7
Height
5810 5812 5814 5815 5818 5820 5821 5822 5824 5829 5832 5833 5834 5835 5836 5838 5840 5842 5844 5845 5848 5850 5852 5854 5856 5858 5860 5862 5865 5869 5871 5872 5874 5875 5877 5880 5881 5883 5885 5886 5888 5889 5890 5891 5893 5894 5895 5896 5897 5898 5899 5901 5903 5904 5905 5907 5908 5909 5910 5911 5912 5913 5914
5805 5808 5809 5809 5813 5815 5815 5819 5824 5826 5826 5827 5830 5830 5832 5835 5837 5840 5842 5844 5845 5848 5850 5852 5854 5856 5858 5861 5864 5866 5868 5869 5871 5873 5876 5878 5880 5882 5883 5885 5886 5887 5889 5890 5892 5893 5894 5895 5896 5897 5898 5899 5900 5902 5903 5904 5906 5908 5909 5910 5911 5911 5912
5801 5803 5802 5802 5806 5808 5811 5817 5819 5818 5819 5824 5826 5827 5830 5833 5835 5838 5840 5842 5844 5846 5848 5850 5852 5854 5857 5859 5861 5863 5865 5867 5869 5871 5874 5876 5878 5880 5882 5884 5885 5887 5888 5890 5891 5893 5894 5895 5896 5897 5897 5898 5899 5900 5901 5902 5904 5906 5907 5908 5909 5909 5911
5794 5795 5795 5797 5802 5804 5807 5811 5811 5812 5817 5821 5823 5825 5829 5832 5833 5836 5838 5840 5842 5844 5846 5848 5850 5853 5855 5857 5859 5861 5863 5864 5867 5869 5872 5874 5876 5878 5880 5882 5884 5886 5887 5889 5890 5892 5893 5894 5895 5896 5896 5897 5898 5899 5900 5901 5902 5904 5905 5907 5908 5909 5910
5787 5788 5790 5794 5798 5799 5802 5805 5806 5810 5815 5818 5819 5822 5826 5828 5830 5833 5836 5838 5840 5841 5843 5845 5847 5849 5851 5853 5855 5858 5860 5862 5864 5867 5870 5872 5875 5877 5879 5881 5883 5884 5886 5887 5888 5889 5890 5891 5893 5894 5895 5897 5897 5898 5899 5900 5901 5902 5904 5905 5907 5908 5909
5783 5785 5788 5792 5794 5796 5801 5804 5805 5810 5815 5816 5817 5819 5824 5827 5828 5831 5834 5836 5838 5839 5841 5843 5845 5846 5848 5850 5852 5854 5856 5859 5862 5865 5868 5870 5873 5876 5878 5879 5881 5882 5884 5885 5885 5886 5887 5889 5891 5893 5895 5896 5897 5898 5899 5899 5900 5901 5902 5904 5905 5906 5907
5780 5780 5782 5787 5789 5792 5797 5798 5801 5806 5810 5812 5813 5817 5822 5825 5827 5830 5833 5835 5837 5838 5840 5841 5842 5844 5845 5847 5849 5851 5854 5856 5859 5862 5865 5868 5871 5873 5875 5877 5879 5880 5882 5882 5883 5884 5885 5887 5889 5891 5893 5895 5897 5898 5898 5898 5899 5900 5901 5902 5903 5904 5905
5773 5773 5775 5781 5783 5785 5788 5790 5794 5799 5802 5805 5808 5814 5820 5821 5823 5827 5830 5833 5836 5837 5838 5839 5840 5841 5843 5845 5847 5849 5851 5854 5857 5860 5862 5865 5868 5870 5872 5874 5876 5878 5879 5880 5881 5882 5884 5885 5886 5888 5891 5893 5895 5896 5896 5897 5899 5900 5900 5901 5901 5902 5903
5763 5765 5769 5773 5775 5778 5782 5785 5789 5794 5797 5800 5803 5809 5814 5815 5818 5823 5826 5830 5832 5833 5834 5836 5837 5839 5842 5844 5846 5848 5850 5852 5855 5857 5860 5862 5864 5867 5869 5871 5873 5874 5876 5877 5879 5881 5882 5883 5884 5885 5888 5890 5892 5893 5894 5896 5897 5898 5898 5899 5900 5901 5901
5757 5760 5762 5766 5769 5773 5777 5779 5783 5787 5791 5794 5799 5804 5807 5810 5815 5819 5822 5826 5828 5829 5831 5833 5835 5838 5840 5842 5844 5846 5848 5850 5852 5855 5857 5859 5861 5863 5865 5867 5869 5871 5873 5875 5877 5878 5880 5881 5882 5883 5885 5887 5888 5890 5891 5893 5894 5895 5895 5897 5899 5899 5899
5750 5753 5756 5761 5766 5769 5771 5774 5777 5781 5786 5790 5795 5800 5802 5807 5813 5816 5820 5824 5826 5827 5829 5831 5833 5836 5838 5840 5842 5844 5846 5848 5849 5851 5853 5855 5858 5860 5863 5865 5867 5869 5871 5873 5874 5876 5878 5879 5880 5881 5882 5883 5885 5887 5888 5889 5890 5891 5892 5894 5896 5897 5898
5743 5747 5752 5757 5761 5764 5767 5769 5773 5778 5782 5786 5791 5795 5798 5804 5810 5814 5819 5823 5825 5826 5828 5829 5831 5833 5835 5838 5840 5841 5843 5845 5847 5849 5851 5853 5855 5857 5860 5862 5864 5867 5868 5870 5872 5873 5875 5876 5878 5879 5880 5881 5882 5883 5884 5885 5886 5888 5889 5891 5893 5895 5895
5738 5743 5747 5751 5755 5758 5762 5765 5769 5774 5778 5782 5787 5790 5794 5800 5805 5810 5817 5820 5822 5825 5827 5828 5830 5831 5832 5835 5837 5838 5840 5842 5844 5846 5848 5851 5853 5855 5856 5859 5862 5864 5866 5867 5869 5870 5872 5873 5875 5876 5877 5879 5880 5881 5881 5882 5883 5885 5886 5888 5890 5891 5892
5732 5736 5741 5745 5749 5753 5757 5761 5765 5768 5772 5777 5781 5785 5789 5795 5800 5808 5814 5817 5819 5823 5826 5827 5829 5829 5830 5832 5834 5837 5838 5840 5841 5842 5844 5847 5849 5850 5852 5854 5857 5859 5861 5863 5865 5866 5868 5870 5872 5874 5875 5876 5877 5878 5878 5879 5880 5882 5883 5885 5886 5888 5890
5726 5730 5735 5739 5743 5748 5752 5755 5758 5762 5766 5771 5775 5779 5785 5790 5796 5805 5811 5812 5815 5820 5823 5826 5828 5828 5829 5831 5832 5834 5836 5838 5839 5840 5842 5843 5845 5847 5848 5850 5852 5854 5856 5859 5861 5864 5866 5867 5869 5870 5872 5874 5875 5875 5876 5877 5878 5879 5880 5882 5884 5886 5887
5719 5723 5728 5733 5737 5742 5745 5748 5753 5757 5760 5765 5770 5774 5779 5784 5791 5800 5805 5808 5811 5815 5818 5821 5824 5826 5827 5829 5830 5832 5833 5835 5837 5839 5840 5841 5842 5844 5846 5847 5849 5851 5853 5856 5859 5861 5863 5864 5866 5868 5869 5870 5871 5873 5875 5876 5876 5877 5878 5880 5882 5883 5884
5712 5715 5720 5726 5731 5735 5738 5743 5748 5751 5755 5760 5765 5770 5775 5779 5784 5793 5799 5802 5806 5810 5813 5815 5819 5822 5825 5827 5828 5829 5829 5831 5833 5836 5838 5839 5840 5842 5844 5845 5847 5848 5850 5852 5855 5857 5859 5861 5863 5864 5866 5867 5869 5870 5872 5872 5873 5874 5876 5877 5879 5880 5881
5704 5707 5714 5720 5725 5728 5732 5736 5742 5746 5750 5755 5760 5764 5769 5773 5777 5785 5792 5796 5800 5805 5808 5810 5814 5819 5823 5824 5825 5825 5826 5828 5831 5833 5835 5837 5839 5840 5841 5843 5845 5846 5848 5849 5851 5854 5856 5857 5859 5861 5863 5864 5866 5867 5868 5869 5871 5872 5874 5875 5876 5878 5879
5697 5701 5708 5714 5718 5721 5725 5729 5736 5741 5746 5749 5753 5757 5762 5767 5771 5777 5784 5790 5795 5801 5804 5806 5810 5815 5817 5819 5821 5823 5824 5826 5829 5831 5832 5834 5836 5838 5839 5841 5843 5845 5846 5848 5849 5851 5852 5854 5856 5858 5860 5861 5863 5864 5865 5867 5869 5870 5871 5872 5873 5875 5877
5691 5695 5701 5708 5712 5715 5719 5724 5731 5737 5740 5743 5747 5751 5757 5761 5764 5769 5777 5783 5789 5796 5799 5802 5805 5809 5811 5814 5818 5821 5823 5824 5826 5828 5830 5831 5833 5835 5837 5838 5840 5842 5844 5846 5847 5848 5850 5851 5853 5854 5856 5858 5859 5861 5862 5864 5866 5868 5869 5870 5871 5872 5874
5684 5689 5695 5701 5706 5710 5714 5718 5723 5730 5733 5736 5741 5747 5750 5753 5757 5762 5770 5777 5783 5790 5794 5796 5799 5804 5806 5809 5814 5817 5819 5820 5822 5824 5826 5828 5830 5832 5833 5835 5837 5839 5841 5843 5845 5846 5847 5849 5850 5851 5853 5854 5856 5858 5860 5861 5864 5865 5866 5868 5869 5870 5871
5677 5682 5688 5694 5700 5705 5708 5710 5714 5721 5727 5730 5737 5743 5744 5747 5752 5757 5763 5769 5777 5784 5788 5790 5794 5798 5800 5804 5809 5812 5813 5816 5818 5820 5822 5825 5826 5828 5830 5832 5834 5836 5838 5840 5842 5843 5845 5846 5848 5849 5850 5852 5853 5855 5857 5859 5860 5862 5864 5865 5867 5867 5869
5669 5676 5682 5689 5695 5698 5699 5701 5705 5714 5721 5725 5732 5738 5739 5741 5747 5751 5756 5762 5770 5776 5782 5785 5788 5791 5794 5798 5803 5806 5809 5811 5813 5815 5818 5820 5823 5825 5827 5829 5831 5833 5835 5837 5838 5840 5842 5844 5845 5846 5848 5849 5850 5852 5854 5855 5857 5859 5861 5862 5863 5864 5865
5661 5669 5676 5682 5686 5687 5690 5694 5699 5706 5714 5719 5726 5732 5734 5736 5741 5745 5749 5756 5763 5769 5775 5780 5782 5785 5787 5792 5797 5801 5804 5806 5808 5810 5813 5816 5819 5821 5824 5826 5828 5830 5832 5834 5835 5837 5839 5840 5842 5843 5845 5846 5847 5849 5850 5852 5854 5856 5858 5859 5860 5861 5861
5654 5661 5668 5673 5677 5679 5683 5688 5692 5698 5707 5714 5719 5724 5726 5729 5734 5738 5743 5750 5756 5762 5768 5774 5777 5779 5782 5787 5792 5795 5797 5800 5803 5806 5808 5811 5814 5817 5819 5822 5824 5826 5828 5830 5832 5834 5835 5837 5838 5840 5841 5842 5844 5845 5847 5849 5851 5853 5855 5856 5857 5858 5859
5646 5653 5660 5665 5669 5670 5674 5680 5686 5693 5701 5706 5710 5714 5719 5723 5728 5733 5738 5744 5750 5756 5761 5767 5772 5775 5777 5782 5786 5789 5792 5795 5798 5801 5803 5806 5808 5811 5814 5817 5819 5822 5824 5826 5828 5830 5832 5833 5835 5836 5838 5839 5841 5842 5843 5845 5847 5849 5851 5853 5854 5855 5856
5639 5644 5650 5656 5659 5661 5667 5675 5681 5686 5693 5698 5702 5707 5713 5717 5722 5727 5733 5738 5744 5750 5755 5760 5765 5769 5772 5776 5780 5784 5787 5789 5792 5795 5798 5800 5803 5805 5808 5811 5814 5817 5819 5822 5824 5826 5828 5830 5831 5832 5834 5836 5837 5838 5840 5842 5843 5845 5847 5849 5850 5851 5853
5629 5634 5640 5646 5651 5655 5663 5671 5675 5679 5687 5694 5698 5702 5706 5711 5715 5721 5727 5732 5737 5744 5749 5753 5758 5763 5767 5771 5775 5778 5781 5784 5787 5790 5793 5796 5798 5800 5803 5805 5808 5811 5814 5816 5819 5821 5823 5825 5827 5828 5830 5832 5833 5835 5836 5837 5839 5841 5842 5844 5845 5847 5848
5620 5626 5633 5639 5646 5653 5659 5664 5669 5674 5681 5688 5692 5695 5700 5704 5708 5715 5721 5726 5732 5738 5743 5747 5752 5756 5761 5765 5769 5773 5776 5779 5781 5784 5787 5791 5793 5796 5798 5800 5802 5805 5808 5811 5813 5816 5818 5820 5822 5824 5825 5827 5829 5830 5832 5833 5834 5836 5837 5839 5840 5842 5843
5613 5621 5628 5633 5641 5648 5651 5655 5662 5668 5674 5680 5686 5690 5693 5696 5701 5707 5714 5720 5726 5731 5737 5742 5746 5750 5755 5759 5763 5767 5770 5773 5776 5779 5782 5785 5788 5791 5793 5795 5798 5800 5803 5806 5808 5811 5813 5814 5817 5819 5820 5822 5824 5826 5827 5828 5830 5831 5832 5834 5835 5836 5837
5608 5614 5621 5626 5634 5640 5644 5649 5657 5663 5667 5673 5679 5683 5686 5690 5695 5700 5707 5714 5720 5725 5731 5736 5740 5745 5749 5753 5757 5760 5763 5767 5770 5773 5777 5780 5783 5786 5788 5790 5793 5795 5798 5800 5803 5805 5807 5809 5811 5813 5815 5817 5819 5820 5822 5824 5825 5826 5827 5828 5829 5831 5832
5603 5608 5615 5622 5629 5635 5639 5645 5651 5655 5658 5664 5670 5675 5680 5685 5690 5695 5701 5707 5713 5718 5724 5729 5733 5739 5744 5748 5751 5754 5757 5760 5764 5767 5771 5774 5777 5780 5783 5785 5788 5790 5793 5795 5797 5799 5802 5804 5805 5807 5809 5811 5814 5815 5817 5818 5820 5821 5822 5823 5824 5825 5826
5597 5604 5612 5618 5623 5628 5633 5637 5641 5644 5649 5656 5663 5670 5676 5680 5686 5690 5695 5701 5707 5712 5717 5721 5726 5732 5737 5742 5745 5749 5751 5754 5757 5760 5764 5768 5771 5774 5777 5780 5782 5785 5787 5790 5792 5794 5796 5798 5800 5802 5804 5806 5808 5810 5811 5813 5814 5815 5816 5817 5818 5819 5820
5593 5602 5609 5612 5615 5620 5625 5628 5632 5638 5645 5651 5658 5665 5670 5675 5681 5686 5689 5696 5702 5706 5709 5714 5719 5724 5730 5735 5739 5743 5746 5748 5751 5754 5758 5761 5765 5768 5772 5774 5776 5779 5781 5784 5786 5788 5791 5793 5795 5797 5799 5801 5802 5804 5805 5807 5808 5809 5810 5811 5812 5813 5814
5592 5599 5603 5604 5607 5613 5618 5622 5627 5633 5639 5644 5651 5657 5662 5668 5675 5680 5685 5692 5697 5699 5702 5708 5712 5717 5723 5728 5733 5737 5740 5743 5746 5748 5752 5755 5758 5762 5765 5768 5770 5773 5775 5777 5780 5782 5785 5787 5789 5791 5793 5795 5797 5798 5799 5801 5802 5803 5804 5805 5806 5807 5807
5588 5592 5594 5595 5599 5607 5613 5616 5620 5626 5633 5638 5645 5650 5655 5662 5669 5675 5680 5687 5693 5695 5696 5701 5706 5710 5716 5721 5725 5730 5734 5737 5740 5743 5746 5749 5752 5755 5758 5760 5763 5766 5768 5771 5773 5776 5778 5780 5783 5785 5787 5789 5791 5793 5794 5795 5796 5797 5798 5799 5799 5800 5801
5582 5584 5585 5588 5595 5603 5607 5609 5613 5621 5627 5633 5638 5643 5649 5655 5663 5668 5674 5681 5687 5690 5691 5696 5700 5704 5708 5714 5718 5723 5727 5730 5734 5737 5740 5743 5746 5749 5751 5754 5756 5759 5761 5764 5767 5769 5771 5774 5776 5778 5780 5783 5784 5786 5788 5789 5790 5790 5791 5792 5793 5794 5794
Wind_Speed
40 39 37 37 35 32 32 34 33 30 28 28 29 31 31 29 25 21 16 12 13 13 13 17 20 24 29 36 38 37 36 35 35 35 33 30 28 27 26 25 24 24 25 26 26 27 27 27 27 26 25 24 23 22 22 23 23 23 23 22 22 22 22
42 40 40 42 39 36 37 35 30 29 32 33 32 32 32 28 24 20 18 16 16 15 16 19 21 23 28 33 35 36 36 37 37 36 33 31 29 27 26 25 25 25 25 26 27 27 28 28 28 26 25 25 24 23 23 23 22 22 22 22 22 22 23
43 42 44 47 44 43 42 37 33 36 37 34 32 32 29 25 21 17 17 17 15 15 19 22 23 24 26 30 33 35 36 38 38 36 35 32 30 29 27 25 25 24 24 23 24 25 26 27 28 27 27 26 26 25 24 23 22 21 22 23 23 24 23
44 47 49 50 47 47 46 42 42 42 38 34 34 32 26 23 20 17 16 15 14 18 21 23 24 26 28 30 32 33 35 38 38 37 36 33 32 30 27 26 24 22 21 19 19 21 23 25 27 27 28 28 27 27 25 24 23 22 23 23 23 23 22
48 50 51 50 48 49 48 46 47 44 38 37 36 33 29 25 22 19 16 14 16 20 23 24 27 31 33 33 33 34 36 38 39 38 37 35 33 30 28 26 24 21 20 18 18 20 23 26 27 28 29 29 28 28 26 25 24 23 23 23 23 23 22
49 50 50 49 49 49 47 45 45 41 38 38 37 35 30 25 21 19 16 16 17 19 23 25 27 32 35 36 36 36 37 38 39 38 37 35 33 31 30 28 25 23 22 21 21 22 24 26 26 28 29 29 28 27 26 26 25 24 23 22 22 22 22
49 50 51 50 49 48 46 46 46 42 40 40 40 37 31 28 25 20 16 16 16 17 23 26 27 32 37 37 37 37 36 36 37 37 37 34 33 32 31 30 28 25 24 24 24 24 25 24 24 27 29 29 28 27 27 27 26 25 23 22 22 22 22
52 54 54 51 50 50 50 51 50 47 46 45 43 39 33 33 31 26 23 20 15 16 24 27 28 33 37 37 37 37 36 37 37 38 37 35 33 33 32 31 30 29 29 28 27 26 25 24 24 26 27 28 29 29 29 29 27 26 25 24 23 23 23
56 57 57 54 54 54 53 53 51 49 49 49 47 43 40 40 37 33 32 26 19 22 29 28 28 32 35 35 36 37 38 38 39 38 38 37 36 35 35 34 34 34 33 31 29 28 26 25 25 26 26 26 27 29 29 29 28 28 28 26 23 23 24
58 58 59 58 57 56 55 55 54 52 52 52 50 46 45 44 39 37 36 29 25 30 32 29 29 31 32 34 35 37 39 40 41 41 40 39 38 37 37 38 38 38 36 34 32 31 29 27 26 26 26 26 26 27 27 28 28 29 29 28 25 24 25
60 60 61 59 58 58 57 57 57 55 53 52 50 48 48 45 40 38 35 30 30 33 32 29 29 29 31 33 35 36 38 40 41 42 42 41 40 39 39 39 40 40 39 37 35 34 32 29 27 27 27 27 27 26 25 26 28 30 30 29 27 25 25
62 61 61 60 59 59 59 58 57 54 53 51 50 49 49 45 42 39 34 31 32 33 30 29 28 28 29 31 33 35 37 38 39 40 41 42 41 40 40 40 40 41 41 39 37 36 35 32 29 28 28 28 27 26 25 25 27 30 30 30 28 27 26
63 62 61 60 60 60 60 59 57 54 53 51 49 50 50 47 44 40 35 33 34 34 30 27 27 28 28 29 31 33 33 34 36 36 38 40 41 42 42 41 40 41 42 41 40 38 37 35 32 29 28 27 26 24 24 24 25 28 31 31 30 29 27
64 63 62 61 61 60 60 59 57 56 55 53 51 51 50 48 45 41 36 35 36 35 32 29 27 27 28 28 28 29 30 31 31 31 32 35 38 41 43 43 43 43 43 43 42 41 39 37 33 29 27 26 25 23 23 23 23 26 29 31 31 29 26
65 64 63 63 62 61 60 60 59 58 57 55 54 52 50 48 45 40 38 38 38 36 34 31 28 26 27 27 27 28 29 29 29 29 29 29 32 36 39 41 43 44 44 42 42 41 40 38 35 31 27 25 25 24 23 23 23 25 27 28 27 25 23
66 66 65 64 63 62 61 61 59 59 58 57 55 53 51 49 46 41 39 40 39 37 36 35 31 29 28 28 28 28 29 29 29 29 28 28 28 30 32 33 34 36 38 38 38 39 40 39 38 34 29 27 26 26 24 23 24 25 25 25 24 23 23
68 68 67 66 65 64 63 62 60 59 59 57 55 54 52 50 48 44 41 41 40 38 38 37 35 32 30 30 29 29 30 30 29 28 28 28 27 27 27 27 27 28 30 32 34 36 37 38 39 37 33 29 27 25 24 24 25 25 23 23 23 22 23
70 71 70 67 66 66 66 65 63 61 60 58 56 56 55 53 52 48 45 44 42 40 39 38 35 31 30 31 32 32 32 31 29 28 27 27 26 26 26 25 24 23 23 26 28 30 32 33 35 36 34 31 29 27 25 25 25 23 22 22 22 22 21
72 72 71 69 68 68 68 67 65 63 61 60 59 59 57 55 54 51 48 47 45 41 39 39 36 33 33 34 34 34 34 32 31 29 28 27 27 27 27 26 25 22 21 22 23 24 26 26 28 30 32 32 31 29 27 25 24 23 23 23 23 22 21
74 74 72 71 71 71 70 69 66 64 63 62 61 60 58 57 57 55 51 49 46 42 40 40 38 37 37 36 34 34 34 34 34 33 32 30 29 29 29 29 27 25 24 23 21 21 22 23 24 26 29 31 31 29 28 26 24 24 25 24 24 23 22
76 75 74 73 72 72 71 71 69 67 66 65 63 60 60 60 60 57 54 51 48 43 42 41 40 39 39 38 35 34 34 36 36 36 35 34 33 32 32 31 30 29 27 25 23 22 22 23 25 26 28 30 30 29 28 27 26 26 27 26 26 26 25
77 77 76 74 73 73 73 73 72 70 68 67 64 61 62 63 61 58 56 53 49 45 44 43 41 40 40 39 35 35 36 37 38 38 38 37 36 35 34 34 33 31 29 27 26 24 24 25 26 27 28 29 29 29 29 28 26 27 27 27 27 28 28
78 78 77 75 74 74 75 76 75 72 69 68 66 63 63 64 61 59 57 54 50 47 45 44 43 42 41 39 37 36 36 37 38 39 40 39 39 38 36 36 35 33 31 30 28 27 26 27 28 28 29 30 30 30 30 29 28 26 26 27 28 29 29
78 78 78 77 76 77 78 78 76 74 71 69 67 65 65 65 63 60 58 55 52 48 46 45 44 44 43 40 38 37 37 37 37 39 39 40 39 39 38 37 36 36 34 32 31 30 29 29 30 30 31 31 31 31 31 31 29 27 26 28 29 30 30
80 79 78 78 78 78 79 79 78 75 72 70 68 67 67 66 64 62 59 56 53 50 47 46 45 45 44 41 39 39 38 37 37 37 38 39 39 38 38 38 37 37 36 35 34 33 32 31 31 32 33 32 32 32 32 31 30 29 29 30 31 32 33
80 81 80 79 79 80 80 79 78 76 73 71 70 69 67 65 64 64 61 58 55 52 49 47 45 45 45 42 40 40 40 38 38 37 38 38 38 38 38 38 38 37 37 37 36 35 35 34 33 34 34 34 33 33 33 32 32 31 31 32 33 35 36
81 81 81 80 80 82 82 79 78 77 74 72 71 70 68 66 65 64 62 60 57 54 52 49 47 46 46 44 42 41 40 40 39 39 38 39 39 39 39 38 38 37 37 38 37 37 37 36 35 36 36 36 35 35 34 34 34 33 33 34 35 36 38
84 83 83 83 83 83 82 79 78 77 75 72 71 71 70 69 67 65 63 61 59 57 54 52 50 48 47 45 44 43 42 42 41 40 39 39 39 40 40 40 39 38 38 38 38 38 37 37 36 36 37 37 37 36 36 36 36 36 36 36 37 37 38
86 87 86 85 84 83 82 80 79 78 76 73 72 71 71 71 69 67 64 62 60 58 56 54 52 50 48 47 46 45 45 44 44 43 41 40 40 40 41 41 41 40 39 39 38 38 38 38 37 36 37 38 38 37 38 38 38 38 38 38 39 39 40
87 89 88 87 85 83 83 82 80 79 77 75 73 72 71 71 70 68 65 63 61 59 57 55 54 52 50 48 47 47 46 46 46 45 44 42 40 40 40 42 42 42 41 39 38 38 38 38 38 37 37 38 38 38 39 39 39 40 40 40 40 41 41
85 87 88 88 86 84 84 83 81 79 78 76 74 73 72 71 70 68 66 64 62 60 58 56 54 52 50 49 48 47 47 47 47 46 45 44 42 41 40 41 42 42 42 40 39 38 38 38 39 39 38 38 39 39 39 39 40 41 41 42 42 42 42
80 85 88 89 87 85 85 83 82 81 80 79 77 75 73 72 70 69 67 64 62 61 59 57 55 53 51 49 48 48 47 47 47 47 46 45 44 42 41 41 41 41 41 41 40 39 38 39 39 40 40 39 39 39 40 40 41 42 42 43 43 43 43
74 80 83 84 85 84 83 83 83 83 82 81 79 76 74 73 70 68 68 66 64 62 60 59 57 55 52 50 49 48 48 48 47 47 47 46 45 44 43 41 40 40 40 40 40 40 39 39 39 39 40 40 41 41 41 42 42 42 43 44 44 45 45
68 71 74 79 83 84 83 84 85 84 83 82 80 77 76 75 71 68 67 64 61 60 62 61 58 56 54 51 50 49 49 49 48 47 47 47 46 45 44 43 41 40 39 39 39 39 39 39 38 38 39 39 40 41 42 42 42 42 42 43 44 45 46
60 63 67 75 80 81 80 81 83 83 83 82 81 79 78 76 73 70 67 61 55 55 59 60 59 57 55 52 51 50 48 48 48 48 47 47 47 46 45 44 43 42 41 40 39 39 39 39 38 37 37 37 37 38 40 41 41 41 42 42 44 45 46
49 54 61 69 75 76 74 76 79 81 82 82 81 80 79 77 75 72 71 64 56 53 56 57 57 57 56 53 51 51 49 48 48 48 48 47 47 47 47 46 45 44 42 41 40 40 40 40 39 37 36 36 36 36 38 39 41 42 42 43 44 45 45
42 49 56 64 70 70 69 72 77 79 79 80 80 79 79 78 76 73 72 68 61 55 54 53 53 55 57 55 52 50 49 47 45 46 48 48 48 48 48 48 47 45 44 43 42 41 41 40 40 38 37 36 36 36 37 39 42 43 44 45 45 45 45
Wind_Direction
225 226 228 228 226 227 225 224 224 225 227 227 230 233 236 239 240 243 240 218 212 214 180 172 184 185 195 204 206 206 209 213 217 216 213 209 203 202 202 202 202 202 203 203 201 199 198 199 198 197 198 201 204 208 212 214 214 214 214 215 216 216 218
221 221 224 226 223 224 225 223 222 223 222 221 223 228 230 232 233 232 226 209 207 210 190 182 182 181 193 202 203 206 209 214 218 215 214 210 205 204 202 201 204 205 206 206 204 202 201 202 202 201 200 200 200 203 208 212 214 215 216 217 218 219 221
223 221 223 224 220 221 223 220 219 221 221 219 222 226 227 228 227 223 219 211 206 202 187 181 181 181 189 198 202 206 209 214 216 214 214 211 207 206 204 204 207 209 212 212 210 208 206 205 204 203 203 201 199 202 205 209 212 215 217 217 218 220 223
222 222 224 225 222 222 223 219 220 221 218 217 221 225 226 227 227 225 223 212 196 191 185 181 182 182 185 192 198 203 206 212 214 214 212 211 210 210 207 206 209 210 212 214 215 214 212 212 209 206 205 203 202 205 207 209 212 215 217 220 223 225 227
221 224 225 227 226 226 225 223 224 224 219 217 220 221 219 220 221 218 212 199 190 191 187 182 181 183 187 192 197 201 206 211 213 212 211 211 212 212 209 210 212 212 211 214 220 219 214 213 213 211 208 207 209 210 210 212 213 214 218 223 226 228 230
221 226 227 228 229 230 229 229 231 231 226 224 226 223 218 217 214 206 195 188 192 190 181 180 184 186 189 194 198 203 209 212 212 211 211 212 213 212 211 211 213 213 211 212 221 226 221 213 212 215 213 213 216 217 218 220 218 217 219 223 227 231 233
219 224 226 226 229 230 230 230 230 229 227 227 229 225 220 220 218 211 194 179 182 187 182 182 186 188 192 196 200 204 208 210 209 209 212 213 213 213 213 213 213 211 209 211 217 227 231 224 217 218 218 219 222 224 227 229 227 225 223 223 226 230 233
216 221 224 224 226 228 228 228 227 224 223 224 225 223 219 220 220 216 204 188 188 195 186 183 187 191 195 198 199 201 203 204 205 207 210 212 212 212 213 213 212 208 207 212 218 224 233 237 233 226 222 222 225 228 232 235 238 238 234 228 225 227 231
216 218 222 222 224 227 228 230 229 226 224 224 222 218 215 216 215 212 208 205 205 195 183 182 188 191 195 198 199 199 201 203 205 207 210 213 213 213 212 210 210 209 209 214 220 223 227 235 240 238 233 229 229 232 235 238 240 243 243 237 231 228 231
217 218 221 222 223 226 227 228 229 227 225 225 223 220 217 216 213 210 209 207 199 184 177 182 189 191 194 198 200 201 202 205 207 208 210 213 214 214 213 211 210 210 212 215 218 221 223 228 237 243 243 242 239 238 238 239 238 240 242 242 238 234 235
218 218 221 222 224 226 227 228 229 228 227 226 224 223 222 220 216 214 211 203 189 179 177 184 188 191 195 197 202 205 205 208 209 210 211 212 213 214 213 214 214 213 214 215 217 219 222 224 231 240 245 247 248 246 246 243 238 235 237 239 239 237 239
219 218 219 221 223 225 227 229 231 231 230 228 226 225 225 223 219 217 214 204 190 181 182 186 188 194 198 197 200 204 207 209 211 212 213 214 215 215 215 217 218 217 216 217 219 220 221 222 225 233 240 245 249 252 253 248 240 235 234 237 238 238 240
218 219 220 221 222 224 227 230 232 233 233 231 229 227 226 224 222 218 214 208 200 191 187 188 191 198 202 200 201 204 208 211 212 212 214 215 217 217 217 219 220 220 220 220 221 221 221 221 222 229 237 241 245 250 253 253 246 238 235 235 236 237 238
217 218 219 220 222 224 226 228 230 232 233 232 231 230 228 227 225 220 215 214 211 203 194 190 195 205 209 209 206 206 209 211 212 213 212 212 216 218 218 218 218 220 222 222 222 221 220 219 220 226 235 239 241 243 246 249 247 241 238 238 239 239 238
217 218 218 219 220 222 224 226 228 229 231 231 231 231 231 231 228 223 218 218 217 213 207 202 203 209 214 216 215 212 213 213 213 214 211 211 214 217 218 218 218 220 223 225 224 223 222 221 222 225 232 238 240 239 241 243 243 241 239 237 238 237 234
217 218 219 219 220 221 223 225 226 227 229 230 230 231 232 233 231 225 220 219 219 220 220 217 215 212 212 217 219 219 218 218 216 215 214 213 214 216 219 220 219 220 222 225 226 226 226 227 227 227 230 236 240 241 240 240 241 240 237 235 234 232 231
216 218 218 219 220 220 222 223 224 226 228 230 231 232 232 234 233 228 222 220 220 220 222 222 220 216 212 214 219 223 223 222 221 219 217 216 216 218 221 221 219 216 216 218 221 224 227 229 229 229 230 234 239 241 240 238 238 240 240 238 236 234 233
216 217 217 218 220 221 221 221 223 225 227 229 231 232 232 233 234 230 225 224 223 221 221 222 221 218 214 212 216 223 227 228 229 227 224 221 220 222 223 224 223 223 221 219 219 220 223 227 229 230 230 231 235 239 240 238 237 239 243 244 243 242 240
216 218 218 218 220 222 222 222 221 223 226 228 230 231 231 232 234 232 229 228 226 224 224 225 223 221 219 216 215 220 226 231 234 235 233 229 226 226 228 228 230 234 235 233 229 225 223 224 227 228 227 228 232 236 239 241 240 239 242 245 247 246 243
217 218 218 218 220 221 223 223 222 222 225 228 230 231 232 232 233 233 231 229 228 225 225 226 225 224 224 222 218 218 222 226 231 235 236 235 232 230 230 232 235 237 239 238 237 234 228 225 226 226 224 226 230 232 235 239 241 242 243 245 247 247 246
218 219 219 219 220 222 224 225 224 223 224 226 228 230 232 233 233 234 233 231 229 226 224 226 226 225 226 226 223 221 221 222 225 230 234 236 236 235 234 235 238 240 239 237 236 235 232 228 227 227 226 226 228 229 231 235 239 242 244 246 249 251 252
218 219 219 220 220 222 224 226 226 224 224 226 227 229 232 234 234 236 236 235 231 228 225 226 226 227 228 227 225 224 223 223 224 227 230 233 236 237 237 239 240 241 240 237 235 234 233 231 230 229 229 229 229 227 228 232 236 240 244 247 250 253 254
219 219 220 220 221 222 224 226 227 226 225 226 227 228 231 234 235 236 237 237 234 231 227 226 227 228 228 227 225 223 223 224 226 227 229 231 233 235 237 239 241 241 239 237 236 236 234 233 232 231 230 231 231 228 226 228 231 236 244 248 249 251 252
221 220 220 220 222 223 224 225 227 227 226 226 227 228 231 233 235 236 237 237 236 234 230 227 227 229 229 227 225 223 223 225 226 228 230 231 232 234 235 237 239 240 239 238 237 237 237 235 234 233 233 234 233 230 228 228 229 233 240 246 248 250 251
222 221 221 221 222 224 224 225 227 227 226 227 228 229 231 232 233 234 235 235 235 235 232 229 228 229 230 229 226 225 226 226 226 229 231 232 233 234 234 236 237 239 239 238 238 238 238 237 235 235 237 238 237 234 232 230 230 232 236 241 246 250 253
223 222 222 222 223 224 224 225 226 227 227 228 229 229 230 232 233 233 234 234 234 234 234 232 229 229 231 231 229 228 228 228 228 229 231 234 235 236 235 235 236 238 239 239 238 238 238 238 237 236 237 239 240 239 236 233 232 233 234 236 241 245 249
224 224 223 223 224 225 225 225 227 227 227 228 229 230 230 231 232 233 233 233 233 233 233 233 232 230 231 232 232 231 230 230 229 229 230 232 235 237 238 238 237 237 238 239 239 238 238 238 238 238 238 238 239 240 240 237 235 235 235 236 238 241 243
224 225 225 224 225 226 226 226 227 228 228 228 230 231 232 232 232 232 232 232 232 232 232 233 233 232 232 233 233 233 232 232 231 230 230 231 233 236 238 239 239 238 238 239 240 241 240 238 238 238 239 239 239 240 241 241 240 239 238 239 241 242 244
225 225 225 226 226 226 227 227 228 229 229 228 229 231 233 234 234 233 233 233 233 232 232 232 233 234 234 234 234 233 233 233 233 233 232 231 232 234 236 239 240 239 239 240 241 242 242 242 240 239 240 241 241 241 242 243 244 244 244 244 245 245 247
227 226 226 227 227 227 228 229 229 230 230 229 229 231 233 234 235 235 234 233 234 233 233 232 233 233 234 234 235 235 234 234 234 235 234 233 233 234 235 238 240 241 241 241 242 243 244 245 243 241 240 241 242 242 243 245 246 247 248 249 249 249 250
228 228 227 228 228 228 229 230 230 231 231 231 230 231 232 234 236 236 235 235 235 234 234 233 233 233 233 233 235 236 236 236 236 236 237 237 236 235 236 237 240 241 242 242 242 242 243 245 245 244 241 240 241 242 244 245 247 249 250 251 251 252 254
229 229 228 228 229 230 231 232 232 233 233 232 231 231 232 234 236 237 237 236 236 236 235 235 234 233 232 232 233 235 237 237 238 238 238 239 239 238 237 238 240 242 243 244 243 243 243 244 245 245 244 243 242 242 244 246 248 250 251 252 253 253 254
230 230 230 230 230 231 232 233 233 234 234 233 233 232 233 234 235 237 238 238 238 238 238 237 236 234 233 232 232 234 236 237 239 240 241 241 241 241 239 239 240 241 243 244 244 244 244 245 246 246 247 247 246 245 245 246 248 250 251 253 254 254 255
231 231 231 232 231 232 233 233 234 234 235 235 235 234 234 234 235 237 239 240 240 241 241 241 240 238 235 234 233 234 235 237 239 241 242 243 244 245 243 242 241 241 242 244 244 244 245 245 245 246 247 247 247 247 246 246 246 247 248 250 252 254 255
233 232 232 233 232 232 233 234 235 235 235 236 236 236 236 235 235 236 238 239 242 244 244 243 243 242 240 238 236 235 236 237 238 240 242 243 245 247 247 246 244 243 243 244 246 246 246 245 245 245 246 247 248 248 247 246 245 246 246 246 248 250 252
234 233 233 233 232 232 233 235 235 235 236 236 237 237 238 237 236 236 238 238 240 245 245 243 243 244 243 243 242 240 238 238 238 239 240 242 244 246 248 248 248 247 246 246 247 248 248 247 246 245 246 247 248 248 247 246 245 245 245 246 247 248 251
230 231 232 233 232 232 233 234 235 235 236 236 237 238 239 239 238 238 238 237 237 241 245 245 244 244 244 244 245 245 243 241 240 239 239 241 243 245 246 248 249 249 249 248 248 248 249 249 249 248 247 247 247 247 246 245 244 244 246 247 249 251 252